Wind_Speed
9 10 11 11 11 12 12 12 12 12 12 13 14 14 13 13 14 14 14 14 15 14 13 12 12 11 11 11 11 10 9 8 8 8 7 7 6 6 6 6 6 6 6 6
8 9 10 10 11 12 11 12 12 13 12 12 13 14 14 13 13 14 14 15 15 15 14 13 12 12 12 12 12 11 10 9 9 8 7 7 7 7 7 6 6 6 6 7
7 8 9 10 10 11 12 11 11 12 12 12 13 13 14 14 14 14 14 15 15 15 16 15 15 14 13 13 12 12 11 10 9 9 8 8 7 7 7 6 6 7 7 7
7 7 7 8 9 10 11 11 11 12 11 11 12 12 13 13 14 14 14 14 15 15 16 15 15 14 14 13 13 12 11 10 10 9 9 9 8 8 7 7 7 7 7 7
8 8 8 8 9 10 10 10 10 11 11 12 12 13 12 13 14 14 14 14 15 15 15 15 15 14 14 13 12 12 12 11 11 10 10 9 9 9 8 8 8 8 7 7
7 8 8 9 9 10 10 10 10 10 11 12 12 13 12 12 13 14 13 14 15 15 15 15 14 13 13 13 13 12 12 11 11 11 10 10 9 9 9 9 8 8 8 8
7 7 8 9 10 10 9 10 11 11 12 12 12 12 12 13 12 13 13 14 14 15 14 14 14 14 14 13 13 12 12 12 11 11 10 10 10 10 10 10 9 9 9 9
8 7 8 9 10 10 10 10 11 11 11 11 11 11 10 11 11 12 13 13 13 14 14 14 14 14 14 13 13 13 12 12 12 11 11 11 10 10 10 10 10 10 10 11
7 7 8 9 10 9 9 9 9 10 10 10 10 9 9 10 11 10 11 12 12 13 13 13 14 14 14 13 13 13 12 12 11 11 11 11 11 11 11 11 11 12 12 12
8 8 8 8 9 10 9 10 9 10 10 9 8 8 9 10 11 11 11 11 12 13 13 13 13 13 13 13 12 12 11 11 12 11 11 12 11 11 12 12 13 13 13 13
8 9 8 9 9 9 9 9 9 9 9 9 7 7 8 9 10 11 11 11 12 12 12 12 13 13 13 13 13 12 12 12 12 12 12 12 12 12 13 13 14 14 14 14
8 9 9 9 9 9 9 9 9 10 9 8 7 6 7 8 9 9 10 11 12 13 13 13 13 13 14 14 13 13 13 13 13 13 13 13 13 14 14 14 15 15 15 15
10 10 10 10 10 10 10 10 10 10 10 9 8 6 7 8 9 9 9 10 11 13 13 13 13 13 13 14 14 14 14 14 13 13 13 13 14 15 15 16 16 16 16 17
11 10 10 10 9 9 9 10 10 10 10 10 9 8 8 8 9 10 10 10 11 12 12 13 13 13 13 13 14 14 14 14 14 14 14 15 15 15 16 17 17 18 18 18
12 11 10 10 10 10 10 10 10 10 10 10 9 9 9 9 10 10 10 11 12 13 13 13 13 14 14 14 15 15 15 15 15 15 15 16 16 16 16 17 18 18 18 19
13 13 11 11 11 11 11 10 10 9 9 9 9 9 10 11 11 11 12 12 13 14 14 15 15 15 15 15 15 15 15 15 15 15 15 16 16 17 17 18 18 18 19 19
15 14 13 13 12 13 13 11 10 10 9 9 9 9 10 11 11 12 13 13 14 15 15 15 16 16 15 15 15 15 15 15 16 16 16 16 17 17 18 18 19 19 19 19
17 16 15 14 14 15 12 12 11 11 10 9 9 10 11 12 12 12 12 13 14 15 15 15 16 16 16 16 15 15 15 16 16 16 17 17 17 18 18 18 19 19 20 20
19 18 17 16 16 15 13 12 12 12 11 12 11 11 12 12 12 12 12 13 14 15 16 16 17 17 17 16 16 16 17 16 17 17 17 17 18 18 19 19 19 20 21 21
21 20 19 18 17 16 13 13 14 14 13 13 13 13 13 13 13 13 13 13 14 15 17 17 17 17 17 17 17 17 18 18 17 17 17 18 19 19 20 20 21 21 22 22
22 22 21 19 18 17 15 15 15 15 13 14 15 15 15 15 14 14 14 14 15 16 16 17 17 18 17 18 19 19 18 18 17 17 18 18 19 19 20 21 22 22 23 23
23 23 22 21 20 18 17 17 17 15 15 15 15 15 15 15 15 15 15 15 15 15 16 16 17 18 18 18 19 20 19 19 19 18 19 19 19 20 21 22 22 23 23 23
24 24 23 22 21 20 18 18 18 18 17 16 16 16 16 16 16 17 17 16 15 14 15 15 16 17 18 18 19 19 20 20 20 20 20 20 21 22 23 23 23 24 24 24
25 25 25 24 22 21 20 20 20 19 19 18 18 18 17 17 17 18 18 18 17 16 15 16 17 17 18 19 19 19 19 19 20 21 22 22 23 23 23 24 24 25 26 26
25 26 26 25 24 23 22 21 21 21 21 20 20 20 19 19 18 18 18 18 18 18 18 18 18 19 19 19 20 20 20 21 22 23 23 23 23 24 24 25 26 27 27 28
26 26 26 26 24 24 22 22 22 22 22 21 22 21 21 20 20 20 20 20 20 20 20 20 20 20 21 22 22 23 23 22 23 24 24 25 25 25 26 27 28 28 29 30
Wind_Direction
233 230 228 224 222 221 222 224 227 229 234 235 235 230 229 228 226 226 224 223 223 225 227 224 221 220 219 220 223 229 240 251 253 253 254 258 264 268 272 278 283 284 291 299
226 228 228 225 222 217 220 227 229 233 236 238 238 232 229 229 226 226 224 223 223 225 225 221 223 224 222 223 228 233 240 248 253 257 257 260 262 267 271 276 278 283 289 295
228 226 225 220 215 219 223 226 230 236 240 241 240 234 232 228 227 226 225 225 224 226 227 227 226 228 227 228 230 233 241 247 251 254 257 261 262 265 270 277 283 288 291 294
226 228 222 216 217 222 224 227 229 235 243 241 240 237 232 228 227 225 227 226 226 226 228 227 228 229 228 229 232 237 246 250 251 254 254 257 261 262 269 274 280 287 292 297
227 227 224 221 219 220 222 228 232 236 241 241 241 239 231 233 228 229 230 227 226 228 228 227 228 227 228 231 236 243 246 250 253 256 256 255 258 261 265 269 276 285 289 294
226 226 223 222 218 218 224 230 233 239 244 245 245 244 235 233 229 227 231 229 229 227 225 225 226 228 230 235 242 245 245 246 250 254 256 255 258 262 265 269 276 282 286 292
228 228 226 224 224 224 227 231 238 243 247 248 246 243 236 234 232 229 230 230 227 221 222 224 227 230 234 237 240 242 242 245 249 252 253 254 259 262 266 270 274 280 284 287
227 228 229 226 225 227 231 235 239 246 250 248 246 242 237 237 237 235 231 230 226 220 221 224 229 233 238 239 241 243 246 247 248 250 253 257 260 264 267 269 275 280 284 286
232 230 230 228 224 226 230 237 242 245 249 249 248 248 241 238 236 236 231 229 225 221 223 230 234 238 240 240 240 243 244 244 247 251 255 259 261 266 269 270 277 281 284 284
235 234 234 235 233 236 236 238 243 246 248 253 256 248 241 240 241 239 234 229 225 227 229 233 237 240 241 240 240 240 239 242 247 251 256 259 263 267 271 273 278 281 282 284
235 237 235 235 236 234 236 239 242 249 255 257 258 252 244 241 242 239 238 232 228 229 234 237 237 240 240 240 240 242 243 246 249 252 257 260 263 269 273 275 278 280 282 284
241 238 236 238 236 238 242 247 248 249 252 253 256 257 251 243 238 237 237 235 233 235 238 239 239 242 242 242 244 245 245 248 250 255 259 261 264 271 274 276 278 279 281 284
242 242 238 234 238 244 244 248 251 250 245 246 251 254 253 250 241 238 239 240 239 240 239 241 244 244 243 244 245 247 247 250 254 258 261 263 267 271 274 276 279 279 281 282
239 242 242 242 245 249 247 248 250 250 249 249 250 246 239 244 243 241 240 243 245 244 244 243 247 249 246 245 245 247 249 253 256 259 262 263 267 272 275 278 279 279 280 281
240 244 246 243 244 244 243 246 249 250 250 252 249 246 238 244 246 242 239 244 249 251 251 249 249 252 252 252 252 251 251 256 259 262 264 264 267 270 274 277 279 280 282 282
240 243 244 242 241 246 247 248 246 247 248 250 247 246 246 247 249 246 245 248 251 252 253 254 255 255 254 253 255 255 256 259 261 264 266 266 268 271 275 278 279 281 283 284
239 243 243 242 243 247 249 249 248 247 249 250 245 241 246 250 252 250 250 250 251 251 256 257 254 254 254 255 255 257 259 261 263 265 266 269 271 274 277 279 281 282 283 285
239 242 243 244 246 249 252 248 249 251 254 260 260 252 252 255 255 253 252 252 252 254 257 256 254 252 254 255 254 256 260 262 265 268 269 271 274 276 278 281 282 282 283 285
238 240 243 245 249 251 250 248 249 252 254 260 265 263 260 261 260 257 256 256 256 255 254 254 255 253 253 254 257 260 263 265 267 269 270 271 275 277 279 281 282 283 284 286
238 241 244 247 251 252 249 249 250 251 252 257 263 265 262 261 261 261 263 265 264 259 256 255 255 253 253 257 260 261 265 267 269 270 270 272 276 278 280 282 283 284 286 287
238 242 245 248 251 252 251 251 253 253 257 260 263 265 265 264 265 264 265 267 268 265 261 257 255 253 256 259 260 264 269 269 270 271 272 275 279 280 281 282 283 285 286 288
240 242 245 249 251 250 251 252 254 257 258 260 262 264 265 266 267 267 268 270 272 268 263 261 257 256 259 262 263 265 268 268 269 272 274 277 279 281 282 283 284 286 287 287
241 244 246 248 250 251 252 253 254 255 258 260 261 264 266 267 267 266 265 268 268 268 269 268 264 263 262 263 265 268 269 269 270 273 275 277 280 282 283 283 284 286 288 289
242 244 246 247 247 249 252 254 254 254 256 258 260 263 266 268 267 267 265 264 266 269 269 270 269 267 265 264 266 268 269 271 273 274 276 278 280 281 282 283 284 286 288 289
242 243 244 245 247 249 250 254 255 255 255 256 259 262 263 264 265 266 264 262 264 266 269 271 268 266 265 267 268 271 271 272 275 276 277 279 281 281 282 282 284 285 287 289
241 243 244 245 246 249 250 252 255 255 256 258 261 263 264 263 264 266 265 266 265 267 268 269 270 268 268 269 271 273 274 275 275 276 278 278 281 283 283 283 284 285 287 289
Height
5836 5838 5839 5841 5842 5845 5846 5848 5850 5852 5854 5856 5857 5859 5861 5862 5864 5865 5867 5869 5871 5872 5874 5875 5877 5878 5879 5881 5882 5883 5883 5884 5884 5885 5885 5886 5886 5886 5886 5885 5885 5885 5884 5884
5837 5837 5838 5839 5841 5843 5845 5847 5849 5851 5852 5854 5855 5857 5858 5860 5861 5863 5865 5866 5868 5870 5871 5873 5875 5876 5877 5879 5880 5881 5882 5882 5883 5883 5884 5884 5884 5884 5884 5884 5884 5883 5883 5882
5836 5837 5837 5839 5840 5842 5844 5846 5848 5849 5850 5851 5853 5855 5856 5858 5859 5861 5862 5864 5866 5867 5869 5871 5872 5874 5875 5877 5878 5879 5880 5880 5881 5881 5882 5882 5883 5883 5883 5883 5882 5882 5881 5881
5835 5836 5837 5838 5840 5841 5843 5845 5846 5847 5849 5850 5852 5853 5855 5855 5857 5858 5860 5862 5863 5865 5867 5869 5870 5872 5873 5875 5876 5877 5877 5878 5879 5879 5880 5880 5881 5881 5881 5881 5881 5881 5880 5879
5835 5836 5837 5838 5839 5840 5842 5843 5845 5846 5847 5848 5849 5851 5853 5853 5855 5856 5858 5859 5861 5863 5865 5866 5868 5869 5871 5872 5873 5874 5875 5876 5876 5877 5878 5878 5879 5879 5879 5879 5879 5879 5878 5878
5835 5836 5836 5837 5838 5840 5841 5843 5843 5844 5845 5847 5848 5848 5851 5851 5852 5854 5855 5857 5858 5860 5862 5864 5865 5867 5868 5869 5871 5872 5872 5873 5874 5875 5875 5876 5876 5877 5877 5877 5877 5877 5877 5876
5834 5835 5836 5837 5838 5839 5840 5842 5843 5843 5844 5845 5846 5846 5849 5849 5850 5851 5853 5854 5856 5858 5859 5861 5863 5865 5866 5867 5868 5869 5870 5871 5871 5872 5873 5873 5874 5874 5875 5875 5875 5875 5874 5874
5833 5835 5835 5836 5837 5838 5839 5841 5842 5843 5843 5843 5844 5844 5847 5847 5848 5849 5850 5852 5853 5855 5857 5859 5861 5862 5863 5864 5865 5866 5867 5868 5869 5869 5870 5871 5871 5872 5872 5872 5872 5872 5872 5872
5832 5834 5835 5835 5836 5837 5838 5839 5840 5841 5841 5842 5842 5844 5845 5845 5846 5847 5848 5850 5851 5853 5855 5857 5858 5859 5860 5861 5862 5863 5864 5865 5866 5867 5867 5868 5869 5869 5870 5870 5870 5870 5870 5869
5832 5833 5834 5835 5836 5836 5837 5838 5839 5839 5839 5840 5841 5842 5843 5843 5844 5845 5846 5848 5849 5851 5853 5854 5855 5856 5858 5859 5860 5861 5861 5862 5863 5864 5865 5865 5866 5866 5867 5867 5867 5867 5866 5866
5830 5832 5833 5834 5834 5835 5837 5837 5837 5838 5839 5839 5840 5843 5841 5842 5842 5843 5845 5846 5847 5849 5850 5851 5853 5854 5855 5856 5857 5858 5859 5859 5860 5861 5862 5862 5863 5863 5864 5864 5864 5863 5863 5863
5829 5830 5831 5832 5833 5834 5835 5835 5836 5837 5837 5838 5838 5842 5839 5839 5840 5841 5843 5844 5845 5846 5848 5849 5850 5851 5852 5853 5854 5855 5856 5856 5857 5858 5859 5859 5860 5860 5860 5860 5860 5860 5860 5859
5828 5829 5830 5831 5833 5833 5833 5833 5834 5835 5835 5836 5837 5841 5837 5837 5838 5839 5841 5842 5843 5844 5845 5846 5847 5848 5849 5850 5851 5852 5853 5853 5854 5855 5855 5856 5856 5857 5857 5857 5856 5856 5856 5855
5826 5827 5828 5830 5830 5830 5831 5831 5832 5832 5833 5834 5835 5836 5835 5835 5836 5837 5838 5839 5840 5841 5842 5843 5844 5845 5846 5847 5848 5849 5849 5850 5851 5851 5852 5852 5853 5853 5853 5853 5853 5852 5852 5851
5823 5824 5825 5826 5827 5828 5828 5829 5829 5830 5831 5832 5833 5833 5834 5834 5835 5836 5836 5837 5838 5839 5840 5841 5842 5842 5843 5844 5845 5845 5846 5847 5847 5848 5848 5849 5849 5849 5849 5849 5848 5848 5847 5847
5820 5821 5823 5824 5825 5825 5826 5827 5827 5828 5829 5829 5830 5831 5831 5832 5832 5833 5834 5835 5836 5836 5837 5838 5838 5839 5840 5840 5841 5842 5842 5843 5844 5844 5844 5844 5844 5844 5844 5844 5844 5843 5843 5842
5816 5818 5819 5821 5822 5822 5824 5825 5825 5826 5826 5827 5828 5829 5829 5830 5830 5831 5831 5832 5832 5833 5834 5834 5835 5836 5836 5837 5837 5838 5839 5839 5839 5840 5840 5840 5840 5840 5840 5840 5839 5839 5838 5837
5812 5814 5815 5817 5819 5819 5823 5822 5823 5823 5824 5824 5825 5825 5826 5827 5827 5828 5828 5829 5829 5830 5830 5831 5831 5832 5833 5833 5834 5834 5834 5835 5835 5835 5835 5835 5835 5835 5835 5835 5834 5833 5833 5832
5808 5810 5811 5813 5814 5815 5818 5819 5820 5820 5821 5822 5822 5822 5823 5823 5824 5824 5825 5825 5825 5826 5826 5827 5827 5828 5828 5829 5829 5830 5830 5830 5830 5830 5830 5831 5830 5830 5830 5829 5829 5828 5827 5826
5804 5806 5808 5809 5809 5811 5816 5816 5816 5818 5818 5819 5819 5819 5819 5820 5821 5822 5821 5821 5821 5821 5822 5822 5822 5823 5824 5824 5825 5825 5825 5826 5826 5825 5825 5825 5825 5825 5824 5824 5823 5823 5822 5821
5799 5800 5802 5804 5805 5807 5811 5811 5812 5814 5816 5815 5815 5815 5816 5816 5817 5817 5817 5817 5817 5817 5817 5817 5818 5819 5819 5820 5820 5820 5821 5821 5820 5820 5820 5820 5820 5819 5819 5818 5818 5817 5816 5815
5793 5795 5797 5798 5800 5804 5806 5806 5808 5809 5810 5810 5811 5811 5812 5813 5813 5813 5813 5813 5813 5813 5813 5813 5814 5814 5814 5814 5815 5815 5816 5815 5815 5815 5815 5815 5814 5814 5813 5813 5812 5811 5810 5808
5787 5790 5792 5794 5797 5799 5800 5801 5803 5804 5805 5805 5806 5807 5808 5808 5808 5808 5808 5809 5809 5809 5809 5809 5809 5809 5809 5809 5810 5810 5810 5810 5810 5810 5810 5809 5809 5808 5807 5806 5805 5804 5803 5802
5780 5783 5785 5788 5790 5792 5794 5796 5797 5798 5799 5800 5801 5802 5802 5803 5803 5803 5803 5803 5804 5804 5804 5804 5804 5804 5804 5804 5804 5804 5804 5804 5804 5804 5804 5803 5803 5802 5801 5800 5799 5798 5796 5795
5774 5776 5778 5781 5784 5786 5788 5789 5791 5792 5793 5794 5795 5796 5796 5797 5797 5798 5798 5798 5798 5798 5799 5798 5798 5799 5799 5799 5799 5799 5798 5798 5798 5798 5797 5797 5796 5795 5794 5793 5792 5790 5789 5787
5767 5769 5772 5774 5777 5779 5782 5783 5784 5785 5787 5787 5789 5790 5790 5791 5791 5792 5792 5792 5792 5792 5793 5792 5792 5792 5793 5792 5792 5792 5792 5792 5791 5791 5790 5789 5789 5788 5786 5785 5784 5782 5781 5779